When you browse on this site, cookies collect data to enhance your experience and personalize the content and advertising you see.
Visit our Privacy Policy to learn more. By continuing to use the site, you agree to this use of cookies and data.
  • In Hungary
  • List of Countries
  • For 7 days
  • Water Temperature
  • Satellite Maps
  • Weather Map
  • News
  • Weather Widgets
  • user-avatar
    Login

    Hourly Weather Lawrence

    Today, 16 February, Saturday

    Time Temperature Precipitation Wind Pressure Humidity
    00:00 -14°C° 0 mm 2 mps 742 mmHg 93%
    01:00 -15°C° 0 mm 2 mps 741 mmHg 93%
    02:00 -15°C° 0 mm 2 mps 741 mmHg 93%
    03:00 -15°C° 0 mm 2 mps 741 mmHg 93%
    04:00 -15°C° 0 mm 2 mps 741 mmHg 93%
    05:00 -15°C° 0 mm 2 mps 741 mmHg 93%
    06:00 -15°C° 0 mm 2 mps 741 mmHg 93%
    07:00 -14°C° 0 mm 2 mps 740 mmHg 91%
    08:00 -13°C° 0 mm 2 mps 740 mmHg 89%
    09:00 -12°C° 0 mm 2 mps 740 mmHg 87%
    10:00 -10°C° 0 mm 3 mps 739 mmHg 84%
    11:00 -8°C° 0 mm 3 mps 739 mmHg 82%
    12:00 -8°C° 0 mm 4 mps 738 mmHg 79%
    13:00 -7°C° 0 mm 4 mps 737 mmHg 81%
    14:00 -5°C° 0 mm 4 mps 735 mmHg 82%
    15:00 -5°C° 0 mm 4 mps 734 mmHg 84%
    16:00 -5°C° 0.4 mm 4 mps 734 mmHg 88%
    17:00 -5°C° 0.4 mm 4 mps 733 mmHg 91%
    18:00 -5°C° 0.4 mm 4 mps 733 mmHg 95%
    19:00 -5°C° 0.6 mm 4 mps 733 mmHg 95%
    20:00 -5°C° 0.6 mm 4 mps 732 mmHg 95%
    21:00 -4°C° 0.6 mm 4 mps 732 mmHg 95%
    22:00 -4°C° 0.1 mm 3 mps 732 mmHg 95%
    23:00 -4°C° 0.1 mm 3 mps 732 mmHg 96%

    Tomorrow, 17 February, Sunday

    Time Temperature Precipitation Wind Pressure Humidity
    00:00 -4°C° 0.1 mm 3 mps 732 mmHg 97%
    01:00 -3°C° 0.4 mm 2 mps 731 mmHg 97%
    02:00 -3°C° 0.4 mm 2 mps 731 mmHg 97%
    03:00 -1°C° 0.4 mm 1 mps 731 mmHg 97%
    04:00 -3°C° 0.1 mm 2 mps 731 mmHg 97%
    05:00 -3°C° 0.1 mm 2 mps 732 mmHg 97%
    06:00 -4°C° 0.1 mm 3 mps 732 mmHg 96%
    07:00 -4°C° 0 mm 4 mps 733 mmHg 95%
    08:00 -5°C° 0 mm 4 mps 733 mmHg 94%
    09:00 -6°C° 0 mm 5 mps 734 mmHg 93%
    10:00 -5°C° 0 mm 5 mps 735 mmHg 92%
    11:00 -5°C° 0 mm 6 mps 735 mmHg 91%
    12:00 -4°C° 0 mm 6 mps 736 mmHg 90%
    13:00 -4°C° 0 mm 6 mps 736 mmHg 88%
    14:00 -4°C° 0 mm 6 mps 737 mmHg 86%
    15:00 -4°C° 0 mm 6 mps 737 mmHg 84%
    16:00 -5°C° 0 mm 6 mps 738 mmHg 83%
    17:00 -5°C° 0 mm 6 mps 738 mmHg 83%
    18:00 -6°C° 0 mm 5 mps 739 mmHg 83%
    19:00 -6°C° 0 mm 5 mps 740 mmHg 83%
    20:00 -7°C° 0 mm 5 mps 741 mmHg 83%
    21:00 -7°C° 0 mm 5 mps 742 mmHg 83%
    22:00 -8°C° 0 mm 4 mps 743 mmHg 84%
    23:00 -9°C° 0 mm 4 mps 743 mmHg 85%

    Day after tomorrow, 18 February, Monday

    Time Temperature Precipitation Wind Pressure Humidity
    00:00 -11°C° 0 mm 4 mps 744 mmHg 86%
    01:00 -11°C° 0 mm 4 mps 744 mmHg 87%
    02:00 -12°C° 0 mm 4 mps 744 mmHg 89%
    03:00 -13°C° 0 mm 3 mps 744 mmHg 90%
    04:00 -14°C° 0 mm 3 mps 745 mmHg 91%
    05:00 -14°C° 0 mm 3 mps 746 mmHg 92%
    06:00 -15°C° 0 mm 3 mps 746 mmHg 92%
    07:00 -14°C° 0 mm 3 mps 747 mmHg 92%
    08:00 -14°C° 0 mm 4 mps 748 mmHg 91%
    09:00 -12°C° 0 mm 4 mps 749 mmHg 91%
    10:00 -11°C° 0 mm 4 mps 749 mmHg 90%
    11:00 -10°C° 0 mm 4 mps 749 mmHg 89%
    12:00 -7°C° 0 mm 3 mps 750 mmHg 88%
    13:00 -8°C° 0 mm 4 mps 749 mmHg 88%
    14:00 -7°C° 0 mm 4 mps 749 mmHg 87%
    15:00 -7°C° 0 mm 4 mps 749 mmHg 87%
    16:00 -6°C° 0.1 mm 3 mps 749 mmHg 88%
    17:00 -6°C° 0.1 mm 3 mps 749 mmHg 90%
    18:00 -7°C° 0.1 mm 3 mps 749 mmHg 92%
    19:00 -7°C° 0.1 mm 3 mps 749 mmHg 92%
    20:00 -7°C° 0.1 mm 2 mps 750 mmHg 93%
    21:00 -7°C° 0.1 mm 2 mps 750 mmHg 94%
    22:00 -8°C° 0 mm 2 mps 750 mmHg 94%
    23:00 -9°C° 0 mm 3 mps 750 mmHg 95%

    19 February, Tuesday

    Time Temperature Precipitation Wind Pressure Humidity
    00:00 -10°C° 0 mm 3 mps 750 mmHg 95%
    01:00 -10°C° 0 mm 3 mps 749 mmHg 95%
    02:00 -12°C° 0 mm 3 mps 749 mmHg 95%
    03:00 -12°C° 0 mm 3 mps 749 mmHg 96%
    04:00 -10°C° 0 mm 3 mps 749 mmHg 96%
    05:00 -11°C° 0 mm 4 mps 749 mmHg 96%
    06:00 -10°C° 0 mm 4 mps 749 mmHg 96%
    07:00 -9°C° 0 mm 4 mps 749 mmHg 95%
    08:00 -8°C° 0 mm 5 mps 749 mmHg 94%
    09:00 -8°C° 0 mm 5 mps 749 mmHg 93%
    10:00 -8°C° 0.2 mm 6 mps 748 mmHg 93%
    11:00 -8°C° 0.2 mm 6 mps 748 mmHg 93%
    12:00 -8°C° 0.2 mm 6 mps 748 mmHg 92%
    13:00 -6°C° 0.4 mm 6 mps 746 mmHg 92%
    14:00 -6°C° 0.4 mm 6 mps 745 mmHg 92%
    15:00 -7°C° 0.4 mm 7 mps 744 mmHg 92%
    16:00 -8°C° 0.5 mm 6 mps 744 mmHg 93%
    17:00 -8°C° 0.5 mm 6 mps 743 mmHg 93%
    18:00 -8°C° 0.5 mm 6 mps 743 mmHg 94%
    19:00 -8°C° 0.6 mm 6 mps 743 mmHg 94%
    20:00 -9°C° 0.6 mm 6 mps 743 mmHg 94%
    21:00 -9°C° 0.6 mm 6 mps 743 mmHg 94%
    22:00 -8°C° 0.4 mm 5 mps 742 mmHg 94%
    23:00 -10°C° 0.4 mm 5 mps 742 mmHg 94%

    20 February, Wednesday

    Time Temperature Precipitation Wind Pressure Humidity
    00:00 -10°C° 0.4 mm 5 mps 741 mmHg 94%
    01:00 -10°C° 0.1 mm 5 mps 741 mmHg 94%
    02:00 -9°C° 0.1 mm 4 mps 741 mmHg 95%
    03:00 -9°C° 0.1 mm 4 mps 740 mmHg 95%
    04:00 -10°C° 0 mm 4 mps 740 mmHg 95%
    05:00 -10°C° 0 mm 4 mps 740 mmHg 95%
    06:00 -10°C° 0 mm 4 mps 740 mmHg 95%
    07:00 -10°C° 0 mm 4 mps 741 mmHg 96%
    08:00 -9°C° 0 mm 3 mps 741 mmHg 96%
    09:00 -9°C° 0 mm 3 mps 741 mmHg 96%
    10:00 -8°C° 0 mm 3 mps 741 mmHg 94%
    11:00 -7°C° 0 mm 3 mps 741 mmHg 93%
    12:00 -6°C° 0 mm 3 mps 741 mmHg 91%
    13:00 -6°C° 0 mm 3 mps 740 mmHg 91%
    14:00 -5°C° 0 mm 3 mps 740 mmHg 90%
    15:00 -4°C° 0 mm 2 mps 740 mmHg 90%
    16:00 -4°C° 0 mm 2 mps 740 mmHg 90%
    17:00 -5°C° 0 mm 2 mps 740 mmHg 91%
    18:00 -5°C° 0 mm 2 mps 740 mmHg 91%
    19:00 -3°C° 0 mm 1 mps 741 mmHg 91%
    20:00 -4°C° 0 mm 1 mps 741 mmHg 91%
    21:00 -4°C° 0 mm 1 mps 742 mmHg 91%
    22:00 -4°C° 0 mm 1 mps 742 mmHg 92%
    23:00 -6°C° 0 mm 1 mps 742 mmHg 92%

    21 February, Thursday

    Time Temperature Precipitation Wind Pressure Humidity
    00:00 -6°C° 0 mm 1 mps 742 mmHg 93%
    01:00 -7°C° 0 mm 1 mps 743 mmHg 93%
    02:00 -8°C° 0 mm 1 mps 743 mmHg 92%
    03:00 -9°C° 0 mm 1 mps 743 mmHg 92%
    04:00 -10°C° 0 mm 0 mps 743 mmHg 93%
    05:00 -10°C° 0 mm 0 mps 743 mmHg 93%
    06:00 -11°C° 0 mm 0 mps 744 mmHg 93%
    07:00 -10°C° 0 mm 0 mps 744 mmHg 93%
    08:00 -9°C° 0 mm 1 mps 745 mmHg 92%
    09:00 -7°C° 0 mm 1 mps 746 mmHg 91%
    10:00 -6°C° 0 mm 1 mps 746 mmHg 89%
    11:00 -3°C° 0 mm 1 mps 746 mmHg 88%
    12:00 -2°C° 0 mm 1 mps 746 mmHg 86%
    13:00 -4°C° 0 mm 2 mps 745 mmHg 88%
    14:00 -3°C° 0 mm 2 mps 744 mmHg 89%
    15:00 -2°C° 0 mm 2 mps 744 mmHg 90%
    16:00 -3°C° 0 mm 2 mps 744 mmHg 91%
    17:00 -4°C° 0 mm 3 mps 744 mmHg 92%
    18:00 -4°C° 0 mm 3 mps 744 mmHg 93%
    19:00 -5°C° 0 mm 3 mps 744 mmHg 93%
    20:00 -5°C° 0 mm 3 mps 744 mmHg 94%
    21:00 -6°C° 0 mm 3 mps 744 mmHg 95%
    22:00 -5°C° 0 mm 2 mps 744 mmHg 95%
    23:00 -5°C° 0 mm 2 mps 743 mmHg 95%
    Show more